sat.trackr.live / text

‹ back to catalog

YAM-5

NORAD 55076 · 2023-001BV

PAYLOAD ACTIVE UNKNOWN

§ Identity

Operator
Country
US
Launch date
2023-01-03
Launch site
AFETR
Launch vehicle
Mass (kg)
RCS (m²)

External: N2YO · Heavens-Above · Gunter

§ Orbital elements

Epoch: 2026-09-21T17:58:44.687712Z

Period
93.49 min
Inclination
97.3098°
Eccentricity
0.0009826
Mean motion
15.40302835 rev/d
Perigee alt
438.5 km
Apogee alt
451.9 km
Semi-major
6,823.4 km
B*
1.9602e-4
RAAN
327.7010°
Arg perigee
116.8091°
Mean anomaly
243.4161°
Rev number
20,696

§ Raw data

YAM-51 55076U 23001BV  26264.74912833  .00007827  00000+0  19602-3 0  99902 55076  97.3098 327.7010 0009826 116.8091 243.4161 15.40302835206967

JSON: /api/v1/satellites/55076 · /tle

For live sub-satellite position, see the globe view (requires WebGL).

§ Visibility from observer

Set your observer location to see the next 7 days of passes ≥ 10°. The values pass through the URL so the page stays shareable.

No JS? Fill the form by hand. The geolocation button needs JavaScript.

§ Radio — SatNOGS DB

ModeDescriptionDownlinkUplink
FM Service Link 400.100 MHz
FM Telemetry 401.500 MHz

2 transmitters · refreshed weekly from db.satnogs.org